| time (UTC) | temp F | wind direction | speed MPH | gust MPH | rain 1hr in | rain 24hr in | rain mn in | humidity % | barometer mb |
| 20260831032627 | 73 | 86 | 3.0 | 6.0 | 0.00 | 0.00 | 0.00 | 45 | 1024.2 |
| 20260831032126 | 72 | 86 | 2.0 | 4.0 | 0.00 | 0.00 | 0.00 | 45 | 1024.2 |
| 20260831031626 | 72 | 86 | 2.0 | 4.0 | 0.00 | 0.00 | 0.00 | 46 | 1024.0 |
| 20260831031127 | 73 | 86 | 1.0 | 3.0 | 0.00 | 0.00 | 0.00 | 46 | 1024.0 |
| 20260831030626 | 73 | 86 | 2.0 | 3.0 | 0.00 | 0.00 | 0.00 | 46 | 1024.0 |
| 20260831030347 | 73 | 86 | 2.0 | 3.0 | 0.00 | 0.00 | 0.00 | 46 | 1023.9 |
| 20260831025627 | 73 | 86 | 2.0 | 3.0 | 0.00 | 0.00 | 0.00 | 46 | 1023.9 |
| 20260831025126 | 73 | 86 | 2.0 | 3.0 | 0.00 | 0.00 | 0.00 | 46 | 1023.8 |
| 20260831024626 | 73 | 86 | 2.0 | 3.0 | 0.00 | 0.00 | 0.00 | 46 | 1023.6 |
| 20260831024126 | 74 | 86 | 0.0 | 4.0 | 0.00 | 0.00 | 0.00 | 46 | 1023.6 |
| 20260831023626 | 74 | 86 | 2.0 | 4.0 | 0.00 | 0.01 | 0.00 | 45 | 1023.5 |
| 20260831023347 | 74 | 86 | 1.0 | 3.0 | 0.00 | 0.01 | 0.00 | 45 | 1023.5 |
| 20260831022626 | 74 | 86 | 1.0 | 5.0 | 0.00 | 0.01 | 0.00 | 44 | 1023.5 |
| 20260831022126 | 74 | 86 | 2.0 | 5.0 | 0.00 | 0.01 | 0.00 | 43 | 1023.4 |
| 20260831021627 | 75 | 86 | 2.0 | 5.0 | 0.00 | 0.01 | 0.00 | 44 | 1023.3 |
| 20260831021126 | 75 | 86 | 2.0 | 4.0 | 0.00 | 0.01 | 0.00 | 44 | 1023.2 |
| 20260831020626 | 75 | 87 | 1.0 | 4.0 | 0.00 | 0.01 | 0.00 | 43 | 1023.2 |
| 20260831020126 | 75 | 87 | 2.0 | 4.0 | 0.00 | 0.02 | 0.00 | 44 | 1023.0 |
| 20260831015627 | 76 | 87 | 2.0 | 4.0 | 0.00 | 0.06 | 0.00 | 43 | 1023.2 |
| 20260831015126 | 77 | 87 | 1.0 | 2.0 | 0.00 | 0.06 | 0.00 | 42 | 1023.2 |
| 20260831014626 | 78 | 87 | 0.0 | 0.0 | 0.00 | 0.06 | 0.00 | 40 | 1022.9 |
| 20260831014126 | 79 | 87 | 0.0 | 0.0 | 0.00 | 0.06 | 0.00 | 40 | 1022.9 |
| 20260831013847 | 80 | 87 | 0.0 | 0.0 | 0.00 | 0.06 | 0.00 | 38 | 1022.9 |
| 20260831013126 | 81 | 87 | 0.0 | 0.0 | 0.00 | 0.06 | 0.00 | 38 | 1022.9 |
| 20260831012626 | 82 | 87 | 0.0 | 0.0 | 0.00 | 0.06 | 0.00 | 38 | 1022.9 |
| 20260831012347 | 82 | 87 | 0.0 | 2.0 | 0.00 | 0.06 | 0.00 | 38 | 1022.9 |
| 20260831011626 | 83 | 87 | 0.0 | 2.0 | 0.00 | 0.06 | 0.00 | 36 | 1022.9 |
| 20260831011127 | 83 | 87 | 0.0 | 2.0 | 0.00 | 0.06 | 0.00 | 36 | 1022.9 |
| 20260831010626 | 83 | 87 | 0.0 | 2.0 | 0.00 | 0.06 | 0.00 | 35 | 1022.9 |
| 20260831010126 | 83 | 87 | 0.0 | 2.0 | 0.00 | 0.06 | 0.00 | 35 | 1022.9 |
| 20260831005626 | 84 | 87 | 0.0 | 3.0 | 0.00 | 0.06 | 0.00 | 35 | 1023.0 |
| 20260831005126 | 84 | 87 | 1.0 | 3.0 | 0.00 | 0.06 | 0.00 | 34 | 1022.9 |
| 20260831004626 | 84 | 87 | 0.0 | 0.0 | 0.00 | 0.06 | 0.00 | 34 | 1022.9 |
| 20260831004126 | 84 | 87 | 0.0 | 2.0 | 0.00 | 0.06 | 0.00 | 34 | 1023.0 |
| 20260831003626 | 84 | 87 | 0.0 | 4.0 | 0.00 | 0.06 | 0.00 | 33 | 1022.9 |
| 20260831003125 | 85 | 87 | 2.0 | 4.0 | 0.00 | 0.06 | 0.00 | 33 | 1023.0 |
| 20260831002626 | 85 | 87 | 0.0 | 5.0 | 0.00 | 0.06 | 0.00 | 33 | 1023.0 |
| 20260831002126 | 86 | 87 | 1.0 | 5.0 | 0.00 | 0.06 | 0.00 | 32 | 1023.0 |
| 20260831001626 | 86 | 87 | 0.0 | 4.0 | 0.00 | 0.06 | 0.00 | 33 | 1023.2 |
| 20260831001126 | 86 | 87 | 0.0 | 6.0 | 0.00 | 0.06 | 0.00 | 32 | 1023.2 |
| 20260831000626 | 87 | 87 | 3.0 | 6.0 | 0.00 | 0.06 | 0.00 | 33 | 1023.2 |
| 20260831000355 | 87 | 100 | 1.0 | 6.0 | 0.00 | 0.06 | 0.00 | 32 | 1023.2 |
| 20260830235627 | 87 | 100 | 2.0 | 6.0 | 0.00 | 0.06 | 0.00 | 33 | 1022.9 |
| 20260830235343 | 88 | 83 | 4.0 | 5.0 | 0.00 | 0.06 | 0.00 | 31 | 1023.0 |
| 20260830234626 | 87 | 42 | 2.0 | 4.0 | 0.00 | 0.06 | 0.00 | 32 | 1022.9 |
| 20260830234126 | 87 | 44 | 2.0 | 5.0 | 0.00 | 0.06 | 0.00 | 32 | 1022.9 |
| 20260830233626 | 87 | 44 | 2.0 | 5.0 | 0.00 | 0.06 | 0.00 | 32 | 1023.0 |
| 20260830233126 | 87 | 44 | 2.0 | 9.0 | 0.00 | 0.06 | 0.00 | 32 | 1023.0 |
| 20260830233104 | 87 | 51 | 3.0 | 9.0 | 0.00 | 0.06 | 0.00 | 32 | 1022.9 |
| 20260830232126 | 87 | 27 | 0.0 | 5.0 | 0.00 | 0.06 | 0.00 | 32 | 1022.9 |
| 20260830231849 | 87 | 27 | 2.0 | 5.0 | 0.00 | 0.06 | 0.00 | 32 | 1023.0 |
| 20260830231126 | 87 | 27 | 2.0 | 6.0 | 0.00 | 0.06 | 0.00 | 33 | 1023.2 |
| 20260830230626 | 88 | 30 | 2.0 | 6.0 | 0.00 | 0.06 | 0.00 | 32 | 1023.2 |
| 20260830230125 | 88 | 25 | 1.0 | 9.0 | 0.00 | 0.06 | 0.00 | 33 | 1023.0 |
| 20260830225626 | 88 | 25 | 1.0 | 10.0 | 0.00 | 0.06 | 0.00 | 32 | 1023.0 |
| 20260830225126 | 88 | 8 | 4.0 | 10.0 | 0.00 | 0.06 | 0.00 | 33 | 1023.3 |
| 20260830224626 | 88 | 354 | 2.0 | 9.0 | 0.00 | 0.06 | 0.00 | 33 | 1023.3 |
| 20260830224126 | 88 | 27 | 1.0 | 7.0 | 0.00 | 0.06 | 0.00 | 33 | 1023.3 |
| 20260830223626 | 87 | 17 | 4.0 | 9.0 | 0.00 | 0.06 | 0.00 | 33 | 1023.4 |
| 20260830223357 | 87 | 27 | 4.0 | 9.0 | 0.00 | 0.06 | 0.00 | 33 | 1023.4 |
| 20260830222625 | 87 | 42 | 3.0 | 6.0 | 0.00 | 0.06 | 0.00 | 33 | 1023.3 |
| 20260830222126 | 87 | 58 | 1.0 | 7.0 | 0.00 | 0.06 | 0.00 | 35 | 1023.4 |
| 20260830221626 | 87 | 48 | 4.0 | 7.0 | 0.00 | 0.06 | 0.00 | 34 | 1023.3 |
| 20260830221126 | 86 | 37 | 3.0 | 9.0 | 0.00 | 0.06 | 0.00 | 34 | 1023.5 |
| 20260830220626 | 86 | 27 | 3.0 | 9.0 | 0.00 | 0.06 | 0.00 | 35 | 1023.5 |
| 20260830220126 | 85 | 345 | 2.0 | 6.0 | 0.00 | 0.06 | 0.00 | 35 | 1023.6 |
| 20260830215625 | 85 | 37 | 2.0 | 6.0 | 0.00 | 0.06 | 0.00 | 37 | 1023.8 |
| 20260830215127 | 85 | 65 | 3.0 | 9.0 | 0.00 | 0.06 | 0.00 | 37 | 1023.8 |
| 20260830214626 | 84 | 42 | 4.0 | 10.0 | 0.00 | 0.06 | 0.00 | 37 | 1023.6 |
| 20260830214126 | 84 | 49 | 2.0 | 10.0 | 0.00 | 0.06 | 0.00 | 37 | 1023.9 |
| 20260830213626 | 83 | 39 | 3.0 | 7.0 | 0.00 | 0.06 | 0.00 | 38 | 1023.9 |
| 20260830213126 | 83 | 32 | 2.0 | 7.0 | 0.00 | 0.06 | 0.00 | 39 | 1023.9 |
| 20260830212625 | 82 | 32 | 2.0 | 5.0 | 0.00 | 0.06 | 0.00 | 40 | 1024.0 |
| 20260830212127 | 82 | 34 | 3.0 | 5.0 | 0.00 | 0.06 | 0.00 | 39 | 1024.0 |
| 20260830211625 | 82 | 34 | 3.0 | 6.0 | 0.00 | 0.06 | 0.00 | 41 | 1024.0 |
| 20260830211125 | 81 | 34 | 2.0 | 6.0 | 0.00 | 0.06 | 0.00 | 41 | 1024.1 |
| 20260830210626 | 81 | 27 | 3.0 | 6.0 | 0.00 | 0.06 | 0.00 | 41 | 1024.1 |
| 20260830210126 | 81 | 24 | 2.0 | 6.0 | 0.00 | 0.06 | 0.00 | 41 | 1024.2 |
| 20260830205625 | 81 | 28 | 4.0 | 9.0 | 0.00 | 0.06 | 0.00 | 41 | 1024.4 |
| 20260830205352 | 82 | 17 | 3.0 | 9.0 | 0.00 | 0.06 | 0.00 | 41 | 1024.5 |
| 20260830204625 | 82 | 0 | 3.0 | 6.0 | 0.00 | 0.06 | 0.00 | 42 | 1024.5 |
| 20260830204125 | 82 | 0 | 3.0 | 10.0 | 0.00 | 0.06 | 0.00 | 42 | 1024.6 |
| 20260830203626 | 82 | 351 | 5.0 | 10.0 | 0.00 | 0.06 | 0.00 | 43 | 1024.5 |
| 20260830203125 | 81 | 1 | 3.0 | 7.0 | 0.00 | 0.06 | 0.00 | 45 | 1024.6 |
| 20260830202627 | 80 | 3 | 4.0 | 9.0 | 0.00 | 0.06 | 0.00 | 44 | 1024.7 |
| 20260830202126 | 80 | 14 | 3.0 | 9.0 | 0.00 | 0.06 | 0.00 | 46 | 1024.9 |
| 20260830201625 | 80 | 20 | 3.0 | 6.0 | 0.00 | 0.06 | 0.00 | 46 | 1025.0 |
| 20260830201126 | 81 | 23 | 3.0 | 6.0 | 0.00 | 0.06 | 0.00 | 46 | 1025.1 |
| 20260830200844 | 81 | 38 | 2.0 | 6.0 | 0.00 | 0.06 | 0.00 | 51 | 1025.1 |
| 20260830200126 | 82 | 41 | 4.0 | 6.0 | 0.00 | 0.06 | 0.00 | 47 | 1025.2 |
| 20260830195626 | 83 | 17 | 1.0 | 9.0 | 0.00 | 0.06 | 0.00 | 48 | 1025.3 |
| 20260830195126 | 84 | 17 | 2.0 | 9.0 | 0.00 | 0.06 | 0.00 | 38 | 1025.3 |
| 20260830194625 | 85 | 39 | 2.0 | 6.0 | 0.00 | 0.06 | 0.00 | 37 | 1025.3 |
| 20260830194126 | 85 | 59 | 2.0 | 9.0 | 0.00 | 0.06 | 0.00 | 37 | 1025.3 |
| 20260830193626 | 86 | 56 | 4.0 | 9.0 | 0.00 | 0.06 | 0.00 | 39 | 1025.3 |
| 20260830193125 | 85 | 58 | 5.0 | 9.0 | 0.00 | 0.06 | 0.00 | 38 | 1025.3 |
| 20260830192625 | 85 | 1 | 4.0 | 11.0 | 0.00 | 0.06 | 0.00 | 37 | 1025.3 |
| 20260830192351 | 85 | 17 | 4.0 | 11.0 | 0.00 | 0.06 | 0.00 | 37 | 1025.3 |
| 20260830191626 | 85 | 45 | 6.0 | 11.0 | 0.00 | 0.06 | 0.00 | 37 | 1025.2 |
| 20260830191349 | 86 | 35 | 5.0 | 11.0 | 0.00 | 0.06 | 0.00 | 38 | 1025.5 |
| 20260830190626 | 85 | 16 | 4.0 | 6.0 | 0.00 | 0.06 | 0.00 | 38 | 1025.3 |
| 20260830190126 | 85 | 71 | 3.0 | 7.0 | 0.00 | 0.06 | 0.00 | 40 | 1025.3 |
| 20260830185626 | 84 | 86 | 2.0 | 7.0 | 0.00 | 0.06 | 0.00 | 41 | 1025.5 |
| 20260830185125 | 85 | 73 | 5.0 | 7.0 | 0.00 | 0.06 | 0.00 | 40 | 1025.6 |
| 20260830184625 | 85 | 96 | 4.0 | 9.0 | 0.00 | 0.06 | 0.00 | 40 | 1025.7 |
| 20260830184125 | 85 | 56 | 4.0 | 9.0 | 0.00 | 0.06 | 0.00 | 40 | 1025.7 |
| 20260830183626 | 84 | 8 | 2.0 | 7.0 | 0.00 | 0.06 | 0.00 | 40 | 1025.9 |
| 20260830183346 | 84 | 42 | 4.0 | 10.0 | 0.00 | 0.06 | 0.00 | 41 | 1025.8 |
| 20260830182625 | 83 | 3 | 4.0 | 10.0 | 0.00 | 0.06 | 0.00 | 42 | 1025.9 |
| 20260830182126 | 83 | 65 | 3.0 | 7.0 | 0.00 | 0.06 | 0.00 | 44 | 1025.9 |
| 20260830181626 | 82 | 55 | 3.0 | 7.0 | 0.00 | 0.06 | 0.00 | 43 | 1026.1 |
| 20260830181126 | 82 | 51 | 4.0 | 7.0 | 0.00 | 0.06 | 0.00 | 43 | 1026.2 |
| 20260830180626 | 83 | 66 | 3.0 | 9.0 | 0.00 | 0.06 | 0.00 | 44 | 1026.3 |
| 20260830180125 | 83 | 59 | 5.0 | 9.0 | 0.00 | 0.06 | 0.00 | 42 | 1026.2 |
| 20260830175625 | 83 | 52 | 2.0 | 5.0 | 0.00 | 0.06 | 0.00 | 44 | 1026.3 |
| 20260830175125 | 83 | 69 | 3.0 | 10.0 | 0.00 | 0.06 | 0.00 | 46 | 1026.4 |
| 20260830174626 | 82 | 72 | 2.0 | 10.0 | 0.00 | 0.06 | 0.00 | 46 | 1026.7 |
| 20260830174126 | 81 | 52 | 3.0 | 7.0 | 0.00 | 0.06 | 0.00 | 47 | 1026.8 |
| 20260830173625 | 81 | 61 | 0.0 | 7.0 | 0.00 | 0.06 | 0.00 | 45 | 1026.9 |
| 20260830173126 | 81 | 63 | 3.0 | 6.0 | 0.00 | 0.06 | 0.00 | 46 | 1027.0 |
| 20260830172625 | 81 | 63 | 3.0 | 6.0 | 0.00 | 0.06 | 0.00 | 48 | 1027.0 |
| 20260830172351 | 80 | 86 | 4.0 | 6.0 | 0.00 | 0.06 | 0.00 | 49 | 1027.2 |
| 20260830171625 | 80 | 134 | 1.0 | 7.0 | 0.00 | 0.06 | 0.00 | 51 | 1027.3 |
| 20260830171126 | 79 | 138 | 2.0 | 7.0 | 0.00 | 0.06 | 0.00 | 52 | 1027.3 |
| 20260830170626 | 79 | 207 | 1.0 | 5.0 | 0.00 | 0.06 | 0.00 | 50 | 1027.4 |
| 20260830170126 | 78 | 210 | 1.0 | 5.0 | 0.00 | 0.06 | 0.00 | 50 | 1027.5 |
| 20260830165626 | 78 | 262 | 1.0 | 3.0 | 0.00 | 0.06 | 0.00 | 54 | 1027.5 |
| 20260830165125 | 77 | 265 | 0.0 | 3.0 | 0.00 | 0.06 | 0.00 | 56 | 1027.5 |
| 20260830164625 | 76 | 265 | 1.0 | 6.0 | 0.00 | 0.06 | 0.00 | 56 | 1027.6 |
| 20260830164125 | 75 | 265 | 2.0 | 6.0 | 0.00 | 0.06 | 0.00 | 56 | 1027.6 |
| 20260830163848 | 74 | 0 | 2.0 | 4.0 | 0.00 | 0.06 | 0.00 | 60 | 1027.8 |
| 20260830163125 | 73 | 0 | 1.0 | 3.0 | 0.00 | 0.06 | 0.00 | 62 | 1027.8 |
| 20260830162625 | 72 | 0 | 0.0 | 0.0 | 0.00 | 0.06 | 0.00 | 65 | 1027.9 |
| 20260830162125 | 71 | 0 | 0.0 | 0.0 | 0.00 | 0.06 | 0.00 | 66 | 1027.9 |
| 20260830161625 | 70 | 0 | 0.0 | 0.0 | 0.00 | 0.06 | 0.00 | 67 | 1028.0 |
| 20260830161125 | 70 | 0 | 0.0 | 0.0 | 0.00 | 0.06 | 0.00 | 68 | 1028.1 |
| 20260830160626 | 69 | 0 | 0.0 | 0.0 | 0.00 | 0.06 | 0.00 | 70 | 1028.0 |
| 20260830160126 | 69 | 0 | 0.0 | 0.0 | 0.00 | 0.06 | 0.00 | 69 | 1027.9 |
| 20260830155625 | 69 | 0 | 0.0 | 0.0 | 0.00 | 0.06 | 0.00 | 69 | 1027.9 |
| 20260830155125 | 69 | 0 | 0.0 | 0.0 | 0.00 | 0.06 | 0.00 | 72 | 1027.8 |
| 20260830154625 | 68 | 0 | 0.0 | 0.0 | 0.00 | 0.06 | 0.00 | 72 | 1027.9 |
| 20260830154348 | 67 | 0 | 0.0 | 0.0 | 0.00 | 0.06 | 0.00 | 73 | 1027.8 |
| 20260830153625 | 67 | 0 | 0.0 | 0.0 | 0.00 | 0.06 | 0.00 | 71 | 1027.6 |
| 20260830153125 | 67 | 0 | 0.0 | 0.0 | 0.00 | 0.06 | 0.00 | 72 | 1027.6 |
| 20260830152625 | 67 | 0 | 0.0 | 0.0 | 0.00 | 0.06 | 0.00 | 72 | 1027.6 |
| 20260830152125 | 67 | 0 | 0.0 | 3.0 | 0.00 | 0.06 | 0.00 | 73 | 1027.6 |
| 20260830151625 | 67 | 0 | 0.0 | 3.0 | 0.00 | 0.06 | 0.00 | 74 | 1027.6 |
| 20260830151125 | 67 | 0 | 0.0 | 3.0 | 0.00 | 0.06 | 0.00 | 76 | 1027.5 |
| 20260830150625 | 66 | 0 | 0.0 | 3.0 | 0.00 | 0.06 | 0.00 | 75 | 1027.5 |
| 20260830150125 | 66 | 0 | 0.0 | 5.0 | 0.00 | 0.06 | 0.00 | 76 | 1027.5 |
| 20260830145625 | 66 | 0 | 2.0 | 5.0 | 0.00 | 0.06 | 0.00 | 76 | 1027.5 |
| 20260830145125 | 66 | 0 | 3.0 | 4.0 | 0.00 | 0.06 | 0.00 | 76 | 1027.5 |
| 20260830144626 | 65 | 341 | 0.0 | 4.0 | 0.00 | 0.06 | 0.00 | 78 | 1027.5 |
| 20260830144126 | 65 | 341 | 0.0 | 4.0 | 0.00 | 0.06 | 0.00 | 79 | 1027.5 |
| 20260830143845 | 65 | 341 | 1.0 | 4.0 | 0.00 | 0.06 | 0.00 | 78 | 1027.4 |
| 20260830143126 | 64 | 341 | 1.0 | 4.0 | 0.00 | 0.06 | 0.00 | 79 | 1027.5 |
| 20260830142625 | 64 | 341 | 0.0 | 3.0 | 0.00 | 0.06 | 0.00 | 80 | 1027.6 |
| 20260830142125 | 64 | 341 | 0.0 | 2.0 | 0.00 | 0.06 | 0.00 | 81 | 1027.6 |
| 20260830141625 | 63 | 341 | 0.0 | 2.0 | 0.00 | 0.06 | 0.00 | 82 | 1027.6 |
| 20260830141125 | 63 | 341 | 0.0 | 0.0 | 0.00 | 0.06 | 0.00 | 83 | 1027.6 |
| 20260830140847 | 62 | 341 | 0.0 | 0.0 | 0.00 | 0.06 | 0.00 | 84 | 1027.6 |
| 20260830140124 | 62 | 341 | 0.0 | 0.0 | 0.00 | 0.06 | 0.00 | 85 | 1027.6 |
| 20260830135625 | 62 | 341 | 0.0 | 0.0 | 0.00 | 0.06 | 0.00 | 86 | 1027.6 |
| 20260830135124 | 61 | 341 | 0.0 | 1.0 | 0.00 | 0.06 | 0.00 | 87 | 1027.5 |
| 20260830134625 | 61 | 341 | 0.0 | 2.0 | 0.00 | 0.06 | 0.00 | 87 | 1027.4 |
| 20260830134124 | 61 | 341 | 0.0 | 3.0 | 0.00 | 0.06 | 0.00 | 87 | 1027.3 |
| 20260830133844 | 60 | 341 | 1.0 | 3.0 | 0.00 | 0.06 | 0.00 | 87 | 1027.3 |
| 20260830133125 | 60 | 341 | 0.0 | 3.0 | 0.00 | 0.06 | 0.00 | 88 | 1027.2 |
| 20260830132842 | 60 | 341 | 0.0 | 3.0 | 0.00 | 0.06 | 0.00 | 88 | 1027.3 |
| 20260830132608 | 60 | 341 | 0.0 | 2.0 | 0.00 | 0.06 | 0.00 | 89 | 1027.0 |
| 20260830131625 | 60 | 341 | 0.0 | 1.0 | 0.00 | 0.06 | 0.00 | 89 | 1027.2 |
| 20260830131125 | 59 | 341 | 0.0 | 1.0 | 0.00 | 0.06 | 0.00 | 90 | 1027.2 |
| 20260830130624 | 59 | 341 | 0.0 | 1.0 | 0.00 | 0.06 | 0.00 | 90 | 1026.9 |
| 20260830130124 | 59 | 341 | 0.0 | 0.0 | 0.00 | 0.06 | 0.00 | 89 | 1026.9 |
| 20260830125625 | 59 | 341 | 0.0 | 0.0 | 0.00 | 0.06 | 0.00 | 89 | 1026.8 |
| 20260830125124 | 59 | 341 | 0.0 | 0.0 | 0.00 | 0.06 | 0.00 | 89 | 1026.9 |
| 20260830124624 | 59 | 341 | 0.0 | 0.0 | 0.00 | 0.06 | 0.00 | 89 | 1026.8 |
| 20260830124122 | 59 | 341 | 0.0 | 0.0 | 0.00 | 0.06 | 0.00 | 89 | 1026.7 |
| 20260830123846 | 59 | 341 | 0.0 | 1.0 | 0.00 | 0.06 | 0.00 | 89 | 1026.9 |
| 20260830123343 | 59 | 341 | 0.0 | 1.0 | 0.00 | 0.06 | 0.00 | 89 | 1026.9 |
| 20260830122835 | 59 | 341 | 0.0 | 0.0 | 0.00 | 0.06 | 0.00 | 89 | 1026.8 |
| 20260830122117 | 59 | 341 | 0.0 | 0.0 | 0.00 | 0.06 | 0.00 | 89 | 1026.7 |
| 20260830121836 | 59 | 341 | 0.0 | 0.0 | 0.00 | 0.06 | 0.00 | 88 | 1026.6 |
| 20260830121343 | 59 | 341 | 0.0 | 0.0 | 0.00 | 0.06 | 0.00 | 88 | 1026.6 |
| 20260830120616 | 59 | 341 | 0.0 | 0.0 | 0.00 | 0.06 | 0.00 | 88 | 1026.3 |
| 20260830120115 | 59 | 341 | 0.0 | 0.0 | 0.00 | 0.06 | 0.00 | 88 | 1026.1 |
| 20260830115616 | 59 | 341 | 0.0 | 0.0 | 0.00 | 0.06 | 0.00 | 88 | 1026.2 |
| 20260830115113 | 59 | 341 | 0.0 | 0.0 | 0.00 | 0.06 | 0.00 | 87 | 1026.1 |
| 20260830114612 | 59 | 341 | 0.0 | 0.0 | 0.00 | 0.06 | 0.00 | 87 | 1026.2 |
| 20260830114307 | 59 | 341 | 0.0 | 0.0 | 0.00 | 0.06 | 0.00 | 87 | 1026.3 |
| 20260830113112 | 59 | 341 | 0.0 | 0.0 | 0.00 | 0.06 | 0.00 | 86 | 1026.2 |
| 20260830112605 | 59 | 341 | 0.0 | 2.0 | 0.00 | 0.06 | 0.00 | 86 | 1026.1 |
| 20260830112105 | 60 | 341 | 0.0 | 2.0 | 0.00 | 0.06 | 0.00 | 86 | 1026.1 |
| 20260830111605 | 60 | 341 | 0.0 | 0.0 | 0.00 | 0.06 | 0.00 | 86 | 1026.2 |
| 20260830111105 | 60 | 341 | 0.0 | 0.0 | 0.00 | 0.06 | 0.00 | 85 | 1026.4 |
| 20260830110604 | 60 | 341 | 0.0 | 0.0 | 0.00 | 0.06 | 0.00 | 85 | 1026.4 |
| 20260830110105 | 60 | 341 | 0.0 | 0.0 | 0.00 | 0.06 | 0.00 | 85 | 1026.3 |
| 20260830105607 | 60 | 341 | 0.0 | 0.0 | 0.00 | 0.06 | 0.00 | 85 | 1026.4 |
| 20260830105105 | 60 | 341 | 0.0 | 0.0 | 0.00 | 0.06 | 0.00 | 85 | 1026.4 |
| 20260830104605 | 60 | 341 | 0.0 | 0.0 | 0.00 | 0.06 | 0.00 | 84 | 1026.2 |
| 20260830104105 | 60 | 341 | 0.0 | 0.0 | 0.00 | 0.06 | 0.00 | 84 | 1026.2 |
| 20260830103603 | 60 | 341 | 0.0 | 2.0 | 0.00 | 0.06 | 0.00 | 84 | 1026.2 |
| 20260830103328 | 60 | 341 | 0.0 | 2.0 | 0.00 | 0.06 | 0.00 | 85 | 1026.3 |
| 20260830102603 | 60 | 341 | 0.0 | 4.0 | 0.00 | 0.06 | 0.00 | 85 | 1026.3 |
| 20260830102102 | 60 | 341 | 0.0 | 4.0 | 0.00 | 0.06 | 0.00 | 85 | 1026.3 |
| 20260830101603 | 60 | 341 | 1.0 | 3.0 | 0.00 | 0.06 | 0.00 | 85 | 1026.3 |
| 20260830101103 | 60 | 341 | 0.0 | 3.0 | 0.00 | 0.06 | 0.00 | 85 | 1026.2 |
| 20260830100823 | 60 | 341 | 0.0 | 0.0 | 0.00 | 0.06 | 0.00 | 86 | 1026.2 |
| 20260830095603 | 60 | 341 | 0.0 | 0.0 | 0.00 | 0.06 | 0.00 | 85 | 1026.4 |
| 20260830095103 | 60 | 341 | 0.0 | 1.0 | 0.00 | 0.06 | 0.00 | 85 | 1026.3 |
| 20260830094603 | 60 | 341 | 0.0 | 3.0 | 0.00 | 0.06 | 0.00 | 85 | 1026.2 |
| 20260830094324 | 60 | 341 | 1.0 | 3.0 | 0.00 | 0.06 | 0.00 | 85 | 1026.2 |
| 20260830093602 | 60 | 341 | 0.0 | 1.0 | 0.00 | 0.06 | 0.00 | 87 | 1025.9 |
| 20260830093102 | 60 | 341 | 0.0 | 0.0 | 0.00 | 0.06 | 0.00 | 87 | 1025.8 |
| 20260830092603 | 60 | 341 | 0.0 | 1.0 | 0.00 | 0.06 | 0.00 | 87 | 1025.8 |
| 20260830092331 | 60 | 341 | 0.0 | 1.0 | 0.00 | 0.06 | 0.00 | 86 | 1025.8 |
| 20260830091602 | 60 | 341 | 0.0 | 0.0 | 0.00 | 0.06 | 0.00 | 85 | 1025.9 |
| 20260830091103 | 60 | 341 | 0.0 | 1.0 | 0.00 | 0.06 | 0.00 | 85 | 1025.8 |
| 20260830090602 | 60 | 341 | 0.0 | 1.0 | 0.00 | 0.06 | 0.00 | 85 | 1025.9 |
| 20260830085558 | 60 | 341 | 0.0 | 0.0 | 0.00 | 0.06 | 0.00 | 84 | 1026.3 |
| 20260830085059 | 60 | 341 | 0.0 | 0.0 | 0.00 | 0.06 | 0.00 | 84 | 1026.4 |
| 20260830084556 | 60 | 341 | 0.0 | 3.0 | 0.00 | 0.06 | 0.00 | 84 | 1026.4 |
| 20260830084055 | 61 | 341 | 0.0 | 3.0 | 0.00 | 0.06 | 0.00 | 83 | 1026.6 |
| 20260830084037 | 61 | 341 | 1.0 | 2.0 | 0.00 | 0.06 | 0.00 | 83 | 1026.6 |
| 20260830083056 | 61 | 341 | 0.0 | 4.0 | 0.00 | 0.06 | 0.00 | 82 | 1026.6 |
| 20260830082554 | 61 | 341 | 1.0 | 4.0 | 0.00 | 0.06 | 0.00 | 83 | 1026.8 |
| 20260830082052 | 61 | 340 | 2.0 | 5.0 | 0.00 | 0.06 | 0.00 | 83 | 1026.8 |
| 20260830082034 | 61 | 340 | 2.0 | 5.0 | 0.00 | 0.06 | 0.00 | 84 | 1026.9 |
| 20260830081309 | 62 | 338 | 1.0 | 4.0 | 0.00 | 0.06 | 0.00 | 85 | 1026.9 |
| 20260830080813 | 62 | 338 | 0.0 | 3.0 | 0.00 | 0.06 | 0.00 | 84 | 1027.2 |
| 20260830080531 | 62 | 338 | 1.0 | 5.0 | 0.00 | 0.06 | 0.00 | 81 | 1027.3 |
| 20260830075547 | 61 | 338 | 2.0 | 5.0 | 0.00 | 0.06 | 0.00 | 81 | 1027.4 |
| 20260830075047 | 61 | 24 | 3.0 | 4.0 | 0.00 | 0.06 | 0.00 | 80 | 1027.5 |
| 20260830074544 | 61 | 30 | 0.0 | 2.0 | 0.00 | 0.06 | 0.00 | 80 | 1027.4 |
| 20260830074044 | 62 | 30 | 0.0 | 2.0 | 0.00 | 0.06 | 0.00 | 79 | 1027.4 |
| 20260830073544 | 62 | 30 | 0.0 | 0.0 | 0.00 | 0.06 | 0.00 | 79 | 1027.3 |
| 20260830073044 | 62 | 30 | 0.0 | 0.0 | 0.00 | 0.06 | 0.00 | 78 | 1027.2 |
| 20260830072544 | 62 | 30 | 0.0 | 1.0 | 0.00 | 0.06 | 0.00 | 78 | 1027.3 |
| 20260830072044 | 62 | 30 | 0.0 | 4.0 | 0.00 | 0.06 | 0.00 | 78 | 1027.2 |
| 20260830072008 | 63 | 30 | 0.0 | 4.0 | 0.00 | 0.06 | 0.00 | 78 | 1027.2 |
| 20260830070543 | 63 | 31 | 2.0 | 11.0 | 0.00 | 0.06 | 0.00 | 78 | 1027.2 |
| 20260830070302 | 63 | 30 | 2.0 | 11.0 | 0.00 | 0.06 | 0.00 | 78 | 1027.0 |
| 20260830065537 | 63 | 39 | 4.0 | 7.0 | 0.00 | 0.06 | 0.00 | 78 | 1027.2 |
| 20260830065037 | 63 | 41 | 3.0 | 9.0 | 0.00 | 0.06 | 0.00 | 78 | 1027.2 |
| 20260830064759 | 63 | 30 | 4.0 | 9.0 | 0.00 | 0.06 | 0.00 | 78 | 1027.2 |
| 20260830064302 | 63 | 37 | 5.0 | 9.0 | 0.00 | 0.06 | 0.00 | 78 | 1027.3 |
| 20260830063534 | 63 | 32 | 3.0 | 10.0 | 0.00 | 0.06 | 0.00 | 78 | 1027.3 |
| 20260830063035 | 63 | 44 | 5.0 | 12.0 | 0.00 | 0.06 | 0.00 | 78 | 1027.3 |
| 20260830062535 | 63 | 25 | 3.0 | 12.0 | 0.00 | 0.06 | 0.00 | 78 | 1027.3 |
| 20260830062255 | 63 | 14 | 5.0 | 11.0 | 0.00 | 0.06 | 0.00 | 78 | 1027.4 |
| 20260830061535 | 63 | 44 | 5.0 | 13.0 | 0.00 | 0.06 | 0.00 | 78 | 1027.3 |
| 20260830061252 | 63 | 41 | 7.0 | 13.0 | 0.00 | 0.06 | 0.00 | 78 | 1027.2 |
| 20260830060932 | 63 | 58 | 4.0 | 11.0 | 0.00 | 0.06 | 0.00 | 79 | 1027.3 |
| 20260830060926 | 63 | 44 | 4.0 | 13.0 | 0.00 | 0.06 | 0.00 | 79 | 1027.4 |
| 20260830055531 | 63 | 63 | 6.0 | 13.0 | 0.00 | 0.06 | 0.06 | 79 | 1027.4 |
| 20260830055031 | 63 | 54 | 7.0 | 12.0 | 0.00 | 0.06 | 0.06 | 79 | 1027.3 |
| 20260830054532 | 63 | 44 | 6.0 | 12.0 | 0.00 | 0.06 | 0.06 | 79 | 1027.4 |
| 20260830054032 | 63 | 42 | 4.0 | 11.0 | 0.00 | 0.06 | 0.06 | 79 | 1027.4 |
| 20260830053530 | 63 | 48 | 4.0 | 10.0 | 0.00 | 0.06 | 0.06 | 79 | 1027.5 |
| 20260830053252 | 63 | 51 | 5.0 | 13.0 | 0.00 | 0.06 | 0.06 | 79 | 1027.4 |
| 20260830052532 | 63 | 58 | 7.0 | 15.0 | 0.00 | 0.06 | 0.06 | 79 | 1027.4 |
| 20260830052030 | 63 | 61 | 4.0 | 15.0 | 0.00 | 0.06 | 0.06 | 79 | 1027.4 |
| 20260830051531 | 64 | 55 | 6.0 | 11.0 | 0.00 | 0.06 | 0.06 | 79 | 1027.5 |
| 20260830051029 | 64 | 71 | 5.0 | 11.0 | 0.00 | 0.06 | 0.06 | 78 | 1027.6 |
| 20260830050531 | 64 | 54 | 5.0 | 11.0 | 0.00 | 0.06 | 0.06 | 77 | 1027.6 |
| 20260830050250 | 64 | 44 | 4.0 | 7.0 | 0.00 | 0.06 | 0.06 | 76 | 1027.6 |
| 20260830045530 | 65 | 41 | 5.0 | 9.0 | 0.00 | 0.06 | 0.06 | 76 | 1027.8 |
| 20260830045031 | 65 | 31 | 4.0 | 14.0 | 0.00 | 0.06 | 0.06 | 75 | 1027.8 |
| 20260830044531 | 66 | 37 | 6.0 | 17.0 | 0.00 | 0.06 | 0.06 | 73 | 1027.6 |
| 20260830044030 | 66 | 39 | 5.0 | 17.0 | 0.00 | 0.06 | 0.06 | 70 | 1027.6 |
| 20260830043530 | 67 | 61 | 3.0 | 11.0 | 0.00 | 0.06 | 0.06 | 69 | 1027.8 |
| 20260830043030 | 67 | 45 | 5.0 | 11.0 | 0.00 | 0.06 | 0.06 | 69 | 1027.6 |
| 20260830042530 | 67 | 44 | 7.0 | 11.0 | 0.00 | 0.06 | 0.06 | 67 | 1027.6 |
| 20260830042031 | 68 | 38 | 4.0 | 7.0 | 0.00 | 0.06 | 0.06 | 66 | 1027.8 |
| 20260830041531 | 68 | 31 | 2.0 | 9.0 | 0.00 | 0.06 | 0.06 | 62 | 1027.6 |
| 20260830041030 | 68 | 8 | 3.0 | 11.0 | 0.00 | 0.06 | 0.06 | 62 | 1027.4 |
| 20260830040531 | 68 | 351 | 6.0 | 14.0 | 0.00 | 0.06 | 0.06 | 64 | 1027.0 |
| 20260830040030 | 68 | 344 | 5.0 | 14.0 | 0.00 | 0.06 | 0.06 | 65 | 1026.9 |
| 20260830035529 | 68 | 345 | 4.0 | 11.0 | 0.00 | 0.06 | 0.06 | 63 | 1027.0 |
| 20260830035028 | 68 | 319 | 4.0 | 12.0 | 0.00 | 0.06 | 0.06 | 63 | 1027.2 |
| 20260830034751 | 68 | 309 | 6.0 | 12.0 | 0.00 | 0.06 | 0.06 | 63 | 1027.2 |
| 20260830034029 | 68 | 321 | 6.0 | 11.0 | 0.00 | 0.06 | 0.06 | 64 | 1027.3 |
| 20260830033529 | 68 | 299 | 5.0 | 14.0 | 0.01 | 0.06 | 0.06 | 64 | 1027.4 |
| 20260830033028 | 68 | 324 | 6.0 | 17.0 | 0.01 | 0.06 | 0.06 | 64 | 1027.4 |